User: anonymous   Login
Location: Unspecified
(0.0000°N, 0.0000°E)
Time: 00:19:21
(UTC+00:00)
Language:

USA 236 - Orbit

View from above orbital plane
View from above orbital plane
View from above satellite
View from above satellite

Ground track
Ground track

The orbit data is extracted from the following two-line orbital elements,

1 38466U 12033A   17051.23517333 0.00000000  00000-0  00000-0 0    00
2 38466   1.6523 224.9671 0003068  14.3232 345.7112  1.00270000    02
Epoch (UTC): 20 February 2017 05:38:38
Eccentricity: 0.0003068
inclination: 1.6523°
perigee height: 35774 km
apogee height: 35799 km
right ascension of ascending node: 224.9671°
argument of perigee: 14.3232°
revolutions per day: 1.00270000
mean anomaly at epoch: 345.7112°
orbit number at epoch: 0

The dashed part of the orbit path shows where the satellite is in the earth's shadow,  

DLR